Location: ?????????
(53.2086°N, 54.0693°E)
Time: 06:16:56
(UTC+00:00)

Cosmos 921 Rocket - Pass Details

Date: 08 December 2019
Orbit: 572 x 632 km, 75.8° (Epoch: 22 January)

Event Time Altitude Azimuth Distance (km) Brightness Sun altitude
Rises 14:28:31 0° 338° (NNW) 2,808 6.6 -19.9°
Reaches altitude 10° 14:30:44 10° 341° (NNW) 1,911 5.7 -20.2°
Maximum altitude 14:34:58 69° 65° (ENE) 636 2.8 -20.9°
Enters shadow 14:35:54 51° 126° (SE) 752 3.2 -21.0°
